Flag for Barbados Weather past 2 weeks in Bridgetown, Barbados

Now
82 °F

Sprinkles. Partly sunny.


Feels Like: 88 °F
Forecast: 80 / 86 °F
Wind: 20 mph from East

Location: Grantley Adams

Current Time: May 5, 2015 at 3:26:50 PM

Latest Report: May 5, 2015 at 3:00 PM


Visibility: N/A

Pressure: 30.01 "Hg

Humidity: 74%

Dew point: 73 °F

Location of BridgetownLocation

Historic Weather in Bridgetown — Graph

°F

Bridgetown temperature yesterday

Maximum temperature yesterday: 86 °F (at 9:00 AM)
Minimum temperature yesterday: 79 °F (at 2:00 AM)
Average temperature yesterday: 82 °F

Past Weeks' High & Low Weather Summary

 TemperatureHumidityPressure
High86 °F (Apr 21, 10:00 AM)94% (Apr 22, 1:00 PM)30.07 "Hg (Apr 22, 1:00 PM)
Low73 °F (Apr 22, 8:00 AM)19% (Apr 20, 5:00 PM)29.89 "Hg (May 1, 5:00 PM)
Average81 °F75%29.97 "Hg
* Reported Apr 20 2:00 PM — May 5 2:00 PM, Bridgetown, Weather by CustomWeather, © 2015

Note: Actual official high and low records may vary slightly from our data, if they occured in-between our weather recording intervals... More about our weather records

Advertising

Bridgetown weather history for previous 24 hours

 ConditionsComfort  
Time TempWeatherWind HumidityBarometerVisibility
2:00 PM
Tue, May 5
86 °FScattered clouds.25 mph59%30.01 "HgN/A
1:00 PM86 °FScattered clouds.25 mph62%30.04 "HgN/A
12:00 PM86 °FPassing clouds.25 mph59%30.04 "HgN/A
11:00 AM86 °FPassing clouds.23 mph59%30.07 "HgN/A
10:00 AM86 °FScattered clouds.26 mph59%30.07 "HgN/A
9:00 AM84 °FPartly sunny.23 mph66%30.07 "HgN/A
8:00 AM84 °FPassing clouds.23 mph62%30.07 "HgN/A
7:00 AM81 °FPassing clouds.20 mph70%30.04 "HgN/A
6:00 AM79 °FPassing clouds.24 mph74%30.01 "HgN/A
5:00 AM79 °FPassing clouds.22 mph79%30.01 "HgN/A
4:00 AM79 °FPassing clouds.20 mph74%30.01 "HgN/A
3:00 AM79 °FPassing clouds.22 mph74%29.98 "HgN/A
2:00 AM79 °FPassing clouds.22 mph74%30.01 "HgN/A
1:00 AM79 °FPassing clouds.23 mph74%30.01 "HgN/A
12:00 AM81 °FPassing clouds.22 mph70%30.01 "HgN/A
11:00 PM
Mon, May 4
81 °FPassing clouds.22 mph70%30.04 "HgN/A
10:00 PM81 °FPassing clouds.23 mph74%30.04 "HgN/A
9:00 PM81 °FPassing clouds.24 mph74%30.04 "HgN/A
8:00 PM81 °FPassing clouds.22 mph74%30.04 "HgN/A
7:00 PM81 °FPassing clouds.20 mph74%30.01 "HgN/A
6:00 PM81 °FScattered clouds.20 mph70%30.01 "HgN/A
5:00 PM82 °FPassing clouds.23 mph70%30.01 "HgN/A
4:00 PM84 °FScattered clouds.22 mph66%30.01 "HgN/A
3:00 PM86 °FScattered clouds.24 mph62%30.01 "HgN/A
Weather by CustomWeather, © 2015

See weather overviewHow to use our weather pages